TimeEDT,TemperatureF,Dew PointF,Humidity,Sea Level PressureIn,VisibilityMPH,Wind Direction,Wind SpeedMPH,Gust SpeedMPH,PrecipitationIn,Events,Conditions,WindDirDegrees,DateUTC
12:56 AM,66.9,57.0,70,30.18,10.0,SSW,9.2,-,N/A,,Mostly Cloudy,200,2013-06-23 04:56:00
1:56 AM,66.9,57.0,70,30.18,10.0,SW,5.8,-,N/A,,Overcast,220,2013-06-23 05:56:00
2:56 AM,64.9,57.9,78,30.16,10.0,Calm,Calm,-,0.00,,Overcast,0,2013-06-23 06:56:00
3:56 AM,64.9,57.0,75,30.15,10.0,SSW,3.5,-,0.00,,Partly Cloudy,200,2013-06-23 07:56:00
4:56 AM,64.9,57.0,75,30.15,10.0,SSW,5.8,-,N/A,,Clear,210,2013-06-23 08:56:00
5:56 AM,64.0,57.0,78,30.14,10.0,SSW,3.5,-,N/A,,Clear,200,2013-06-23 09:56:00
6:56 AM,66.0,57.9,75,30.15,10.0,South,4.6,-,N/A,,Clear,190,2013-06-23 10:56:00
7:56 AM,70.0,61.0,73,30.17,10.0,SW,6.9,-,N/A,,Scattered Clouds,220,2013-06-23 11:56:00
8:56 AM,73.0,63.0,71,30.15,10.0,SW,6.9,-,N/A,,Partly Cloudy,230,2013-06-23 12:56:00
9:56 AM,75.9,64.9,69,30.14,10.0,South,6.9,-,N/A,,Scattered Clouds,180,2013-06-23 13:56:00
10:56 AM,81.0,68.0,65,30.13,10.0,SW,9.2,-,N/A,,Scattered Clouds,220,2013-06-23 14:56:00
11:56 AM,84.0,70.0,63,30.12,10.0,SSW,8.1,-,N/A,,Clear,200,2013-06-23 15:56:00
12:56 PM,84.9,70.0,61,30.10,10.0,SSW,9.2,-,N/A,,Scattered Clouds,210,2013-06-23 16:56:00
1:56 PM,88.0,71.1,57,30.07,10.0,SW,11.5,18.4,N/A,,Scattered Clouds,220,2013-06-23 17:56:00
2:56 PM,88.0,71.1,57,30.06,10.0,SSW,13.8,21.9,N/A,,Mostly Cloudy,210,2013-06-23 18:56:00
3:56 PM,88.0,71.1,57,30.04,10.0,SW,18.4,25.3,N/A,,Mostly Cloudy,220,2013-06-23 19:56:00
4:56 PM,87.1,69.1,55,30.02,10.0,SW,13.8,23.0,N/A,,Mostly Cloudy,220,2013-06-23 20:56:00
5:56 PM,84.9,68.0,57,30.01,10.0,SSW,11.5,21.9,N/A,,Clear,210,2013-06-23 21:56:00
6:56 PM,82.9,66.9,58,30.03,10.0,SSW,15.0,21.9,N/A,,Scattered Clouds,210,2013-06-23 22:56:00
7:56 PM,79.0,66.0,64,30.03,10.0,SSW,10.4,19.6,N/A,,Clear,210,2013-06-23 23:56:00
8:56 PM,77.0,66.9,71,30.05,10.0,SSW,8.1,-,N/A,,Clear,210,2013-06-24 00:56:00
9:56 PM,75.9,68.0,76,30.06,10.0,SW,9.2,-,N/A,,Clear,220,2013-06-24 01:56:00
10:56 PM,75.0,68.0,79,30.06,10.0,SW,10.4,-,N/A,,Clear,220,2013-06-24 02:56:00
11:56 PM,73.9,66.9,79,30.04,10.0,SW,8.1,-,N/A,,Clear,230,2013-06-24 03:56:00